Home   Weather   Enschede   Past weeks

Flag for Netherlands Past Weather in Enschede, Netherlands — Yesterday and Last 2 Weeks

Now
41 °F

Passing clouds.


Feels Like: 41 °F
Forecast: 55 / 71 °F
Wind: 2 mph from Southeast

Location: Deelen

Current Time: Sep 27, 2016 at 9:10:21 AM

Latest Report: Sep 27, 2016 at 8:25 AM


Visibility: N/A

Pressure: 30.27 "Hg

Humidity: 93%

Dew Point: 39 °F

Location of EnschedeLocation

Past Weather in Enschede — Graph

°F

Enschede Temperature Yesterday

Maximum temperature yesterday: 68 °F (at 12:55 PM)
Minimum temperature yesterday: 45 °F (at 6:55 AM)
Average temperature yesterday: 56 °F

High & Low Weather Summary for the Past Weeks

 TemperatureHumidityPressure
High90 °F (Sep 13, 2:25 PM)100% (Sep 16, 4:25 AM)30.30 "Hg (Sep 16, 4:25 AM)
Low39 °F (Sep 27, 5:55 AM)29% (Sep 14, 3:25 PM)29.80 "Hg (Sep 15, 2:55 PM)
Average63 °F72%30.05 "Hg
* Reported Sep 12 7:25 AM — Sep 27 7:55 AM, Enschede, Weather by CustomWeather, © 2016

Note: Actual official high and low records may vary slightly from our data, if they occured in-between our weather recording intervals... More about our weather records

Advertising

Enschede Weather History for the Previous 24 Hours

Scroll right to see more
 ConditionsComfort  
Time TempWeatherWind HumidityBarometerVisibility
7:55 AM
Tue, Sep 27
39 °FFog.1 mph93%30.27 "Hg1 mi
7:25 AM39 °FPassing clouds.1 mph93%30.27 "HgN/A
6:55 AM39 °FPassing clouds.1 mph93%30.27 "HgN/A
6:25 AM39 °FChilly.No wind93%30.27 "HgN/A
5:55 AM39 °FPassing clouds.1 mph100%30.27 "HgN/A
5:25 AM41 °FPassing clouds.1 mph93%30.27 "HgN/A
4:55 AM41 °FPartly cloudy.2 mph100%30.24 "HgN/A
4:25 AM41 °FPassing clouds.No wind100%30.27 "HgN/A
3:55 AM43 °FPassing clouds.1 mph93%30.24 "HgN/A
3:25 AM41 °FQuite cool.1 mph100%30.24 "HgN/A
2:55 AM43 °FQuite cool.1 mph100%30.24 "HgN/A
2:25 AM45 °FPassing clouds.No wind93%30.24 "HgN/A
1:55 AM45 °FPassing clouds.1 mph100%30.24 "HgN/A
1:25 AM46 °FCool.1 mph93%30.24 "HgN/A
12:55 AM46 °FPassing clouds.1 mph100%30.24 "HgN/A
12:25 AM48 °FPassing clouds.1 mph94%30.24 "HgN/A
11:55 PM
Mon, Sep 26
48 °FPassing clouds.1 mph94%30.24 "HgN/A
11:25 PM50 °FOvercast.1 mph94%30.24 "HgN/A
10:55 PM50 °FPassing clouds.No wind94%30.24 "HgN/A
10:25 PM52 °FPassing clouds.2 mph88%30.24 "HgN/A
9:55 PM54 °FCool.2 mph88%30.24 "HgN/A
9:25 PM55 °FCool.1 mph82%30.24 "HgN/A
8:55 PM55 °FCool.3 mph82%30.24 "HgN/A
8:25 PM55 °FPassing clouds.No wind88%30.24 "HgN/A
7:55 PM57 °FOvercast.2 mph82%30.24 "HgN/A
7:25 PM59 °FOvercast.2 mph77%30.21 "HgN/A
6:55 PM61 °FOvercast.2 mph72%30.21 "HgN/A
6:25 PM63 °FOvercast.3 mph68%30.21 "HgN/A
5:55 PM64 °FPassing clouds.3 mph60%30.21 "HgN/A
5:25 PM64 °FOvercast.5 mph60%30.21 "HgN/A
4:55 PM64 °FOvercast.5 mph56%30.21 "HgN/A
4:25 PM64 °FBroken clouds.5 mph60%30.21 "HgN/A
3:55 PM64 °FOvercast.5 mph56%30.21 "HgN/A
3:25 PM66 °FOvercast.5 mph52%30.21 "HgN/A
2:55 PM66 °FMostly cloudy.3 mph52%30.21 "HgN/A
2:25 PM66 °FMostly cloudy.3 mph52%30.21 "HgN/A
1:55 PM66 °FMostly cloudy.3 mph56%30.21 "HgN/A
1:25 PM68 °FPartly sunny.5 mph53%30.21 "HgN/A
12:55 PM68 °FOvercast.3 mph46%30.21 "HgN/A
12:25 PM66 °FScattered clouds.2 mph52%30.21 "HgN/A
11:55 AM64 °FMild.2 mph60%30.21 "HgN/A
11:25 AM64 °FPassing clouds.2 mph68%30.21 "HgN/A
10:55 AM61 °FPassing clouds.1 mph72%30.21 "HgN/A
10:25 AM57 °FCool.1 mph82%30.21 "HgN/A
9:55 AM54 °FPartly sunny.2 mph94%30.21 "HgN/A
9:25 AM52 °FCool.1 mph94%30.21 "HgN/A
Weather by CustomWeather, © 2016

See weather overviewHow to use our weather pages